Simultaneous Nadir Overpasses (SNOs) Predictions

Prediction of SNOs over PacNW region [( 10.00, 139.50) to ( 22.70, 165.60)] between NOAA-19 and NPP Satellites:

Table of predicted SNOs over PacNW region for the next 30.0 days since TLE Epoch: 12/13/2013
Index Date (NOAA-19) Time (NOAA-19) NOAA-19 Lat,Lon Date (NPP) Time (NPP) NPP Lat,Lon Distance(km) Time Diff (sec)
1 12/19/2013 03:53:21 10.11, 146.09 12/19/2013 03:56:56 7.65, 141.34 589.23 215
2 12/19/2013 14:50:11 13.13, 165.57 12/19/2013 14:50:27 14.08, 161.36 468.19 16
3 12/19/2013 16:29:46 21.82, 142.18 12/19/2013 16:29:31 22.65, 138.05 434.26 15
4 12/20/2013 03:45:53 22.65, 145.82 12/20/2013 03:42:16 22.97, 142.46 346.31 217
5 01/01/2014 03:14:00 17.77, 154.77 01/01/2014 03:15:24 16.75, 150.32 486.03 84
6 01/01/2014 15:50:46 12.87, 150.50 01/01/2014 15:47:58 13.61, 146.96 391.96 168
